When you browse on this site, cookies collect data to enhance your experience and personalize the content and advertising you see.
Visit our Privacy Policy to learn more. By continuing to use the site, you agree to this use of cookies and data.
  • In Deutschland
  • Länderverzeichnis
  • Für 7 Tage
  • Wassertemperatur
  • Satellitenkarten
  • Wetterkarte
  • Widgets
  • user-avatar
    Anmelden

    Stündliche Wetter Kalat

    Heute, 18 Januar, Freitag

    Zeit Temperatur Niederschläge Wind Luftdruck Luftfeuchtigkeit
    00:00 -17°C° 0 mm 3 m/S 465 mmHg 30%
    01:00 -17°C° 0 mm 3 m/S 465 mmHg 32%
    02:00 -17°C° 0 mm 3 m/S 466 mmHg 35%
    03:00 -17°C° 0 mm 3 m/S 466 mmHg 39%
    04:00 -16°C° 0 mm 3 m/S 466 mmHg 42%
    05:00 -15°C° 0 mm 3 m/S 467 mmHg 61%
    06:00 -15°C° 0.1 mm 3 m/S 467 mmHg 66%
    07:00 -14°C° 0.1 mm 3 m/S 467 mmHg 72%
    08:00 -14°C° 0.1 mm 3 m/S 467 mmHg 78%
    09:00 -12°C° 0.4 mm 3 m/S 468 mmHg 80%
    10:00 -10°C° 0.4 mm 3 m/S 469 mmHg 82%
    11:00 -9°C° 0 mm 4 m/S 471 mmHg 83%
    12:00 -8°C° 0.1 mm 4 m/S 471 mmHg 81%
    13:00 -6°C° 0.1 mm 3 m/S 472 mmHg 80%
    14:00 -5°C° 0.1 mm 3 m/S 472 mmHg 78%
    15:00 -6°C° 0.3 mm 3 m/S 471 mmHg 80%
    16:00 -7°C° 0.3 mm 3 m/S 471 mmHg 82%
    17:00 -9°C° 0 mm 2 m/S 469 mmHg 82%
    18:00 -10°C° 0.1 mm 2 m/S 469 mmHg 82%
    19:00 -12°C° 0.1 mm 3 m/S 468 mmHg 82%
    20:00 -13°C° 0.1 mm 3 m/S 468 mmHg 82%
    21:00 -13°C° 0.2 mm 3 m/S 468 mmHg 83%
    22:00 -13°C° 0.2 mm 3 m/S 469 mmHg 84%
    23:00 -13°C° 0.2 mm 3 m/S 469 mmHg 84%

    Morgen, 19 Januar, Samstag

    Zeit Temperatur Niederschläge Wind Luftdruck Luftfeuchtigkeit
    00:00 -13°C° 0.2 mm 3 m/S 469 mmHg 85%
    01:00 -13°C° 0.2 mm 3 m/S 469 mmHg 85%
    02:00 -14°C° 0.2 mm 3 m/S 469 mmHg 86%
    03:00 -14°C° 0.1 mm 3 m/S 468 mmHg 85%
    04:00 -14°C° 0.1 mm 3 m/S 468 mmHg 85%
    05:00 -14°C° 0.1 mm 3 m/S 468 mmHg 85%
    06:00 -14°C° 0.1 mm 3 m/S 468 mmHg 85%
    07:00 -14°C° 0.1 mm 3 m/S 468 mmHg 85%
    08:00 -14°C° 0.1 mm 3 m/S 468 mmHg 85%
    09:00 -13°C° 0.2 mm 3 m/S 469 mmHg 83%
    10:00 -12°C° 0.2 mm 3 m/S 470 mmHg 82%
    11:00 -11°C° 0.2 mm 4 m/S 471 mmHg 81%
    12:00 -10°C° 0.2 mm 4 m/S 471 mmHg 80%
    13:00 -10°C° 0.2 mm 4 m/S 470 mmHg 80%
    14:00 -9°C° 0.2 mm 4 m/S 470 mmHg 79%
    15:00 -9°C° 0.2 mm 3 m/S 470 mmHg 81%
    16:00 -9°C° 0.2 mm 3 m/S 470 mmHg 82%
    17:00 -10°C° 0.2 mm 3 m/S 469 mmHg 83%
    18:00 -12°C° 0.1 mm 3 m/S 469 mmHg 84%
    19:00 -14°C° 0.1 mm 4 m/S 469 mmHg 84%
    20:00 -15°C° 0.1 mm 4 m/S 468 mmHg 84%
    21:00 -15°C° 0.1 mm 4 m/S 468 mmHg 84%
    22:00 -15°C° 0.1 mm 4 m/S 468 mmHg 84%
    23:00 -16°C° 0.1 mm 4 m/S 468 mmHg 84%

    übermorgen, 20 Januar, Sonntag

    Zeit Temperatur Niederschläge Wind Luftdruck Luftfeuchtigkeit
    00:00 -16°C° 0.1 mm 4 m/S 468 mmHg 84%
    01:00 -16°C° 0.1 mm 4 m/S 467 mmHg 84%
    02:00 -16°C° 0.1 mm 4 m/S 467 mmHg 84%
    03:00 -16°C° 0.1 mm 4 m/S 468 mmHg 85%
    04:00 -15°C° 0.1 mm 4 m/S 468 mmHg 85%
    05:00 -15°C° 0.1 mm 4 m/S 468 mmHg 86%
    06:00 -15°C° 0.1 mm 4 m/S 468 mmHg 86%
    07:00 -15°C° 0.1 mm 4 m/S 468 mmHg 85%
    08:00 -15°C° 0.1 mm 4 m/S 468 mmHg 84%
    09:00 -14°C° 0.2 mm 4 m/S 469 mmHg 83%
    10:00 -12°C° 0.2 mm 4 m/S 469 mmHg 82%
    11:00 -11°C° 0.2 mm 4 m/S 470 mmHg 81%
    12:00 -11°C° 0.5 mm 4 m/S 470 mmHg 82%
    13:00 -11°C° 0.5 mm 4 m/S 470 mmHg 83%
    14:00 -11°C° 0.5 mm 4 m/S 469 mmHg 83%
    15:00 -11°C° 0.4 mm 4 m/S 469 mmHg 84%
    16:00 -12°C° 0.4 mm 3 m/S 469 mmHg 85%
    17:00 -13°C° 0.4 mm 3 m/S 469 mmHg 85%
    18:00 -13°C° 0.3 mm 3 m/S 469 mmHg 86%
    19:00 -14°C° 0.3 mm 3 m/S 469 mmHg 86%
    20:00 -14°C° 0.3 mm 2 m/S 468 mmHg 87%
    21:00 -14°C° 0.4 mm 2 m/S 468 mmHg 88%
    22:00 -14°C° 0.4 mm 2 m/S 468 mmHg 88%
    23:00 -14°C° 0.4 mm 2 m/S 468 mmHg 89%

    21 Januar, Montag

    Zeit Temperatur Niederschläge Wind Luftdruck Luftfeuchtigkeit
    00:00 -14°C° 0.5 mm 2 m/S 468 mmHg 89%
    01:00 -12°C° 0.5 mm 1 m/S 468 mmHg 89%
    02:00 -13°C° 0.5 mm 1 m/S 468 mmHg 89%
    03:00 -13°C° 0.6 mm 1 m/S 468 mmHg 90%
    04:00 -13°C° 0.6 mm 1 m/S 467 mmHg 91%
    05:00 -13°C° 0.6 mm 1 m/S 467 mmHg 93%
    06:00 -13°C° 0.4 mm 1 m/S 467 mmHg 92%
    07:00 -13°C° 0.4 mm 1 m/S 468 mmHg 91%
    08:00 -13°C° 0.4 mm 1 m/S 468 mmHg 90%
    09:00 -14°C° 0.1 mm 2 m/S 468 mmHg 84%
    10:00 -13°C° 0.1 mm 3 m/S 469 mmHg 78%
    11:00 -12°C° 0.1 mm 3 m/S 470 mmHg 72%
    12:00 -12°C° 0.1 mm 3 m/S 470 mmHg 69%
    13:00 -11°C° 0.1 mm 4 m/S 470 mmHg 66%
    14:00 -11°C° 0.1 mm 4 m/S 469 mmHg 63%
    15:00 -13°C° 0 mm 3 m/S 468 mmHg 69%
    16:00 -14°C° 0 mm 2 m/S 466 mmHg 75%
    17:00 -14°C° 0 mm 1 m/S 465 mmHg 80%
    18:00 -17°C° 0 mm 2 m/S 464 mmHg 81%
    19:00 -18°C° 0 mm 2 m/S 464 mmHg 81%
    20:00 -19°C° 0 mm 2 m/S 464 mmHg 82%
    21:00 -19°C° 0 mm 2 m/S 463 mmHg 81%
    22:00 -20°C° 0 mm 2 m/S 463 mmHg 81%
    23:00 -23°C° 0 mm 3 m/S 462 mmHg 80%

    22 Januar, Dienstag

    Zeit Temperatur Niederschläge Wind Luftdruck Luftfeuchtigkeit
    00:00 -21°C° 0 mm 2 m/S 462 mmHg 80%
    01:00 -21°C° 0 mm 2 m/S 462 mmHg 81%
    02:00 -21°C° 0 mm 2 m/S 461 mmHg 81%
    03:00 -21°C° 0 mm 2 m/S 461 mmHg 80%
    04:00 -21°C° 0 mm 2 m/S 461 mmHg 79%
    05:00 -21°C° 0 mm 2 m/S 461 mmHg 78%
    06:00 -21°C° 0 mm 2 m/S 461 mmHg 76%
    07:00 -21°C° 0 mm 2 m/S 461 mmHg 75%
    08:00 -21°C° 0 mm 2 m/S 462 mmHg 73%
    09:00 -18°C° 0 mm 2 m/S 463 mmHg 71%
    10:00 -15°C° 0 mm 2 m/S 465 mmHg 69%
    11:00 -13°C° 0 mm 2 m/S 466 mmHg 66%
    12:00 -13°C° 0 mm 3 m/S 466 mmHg 66%
    13:00 -13°C° 0 mm 3 m/S 467 mmHg 66%
    14:00 -12°C° 0 mm 3 m/S 467 mmHg 66%
    15:00 -14°C° 0 mm 3 m/S 466 mmHg 70%
    16:00 -14°C° 0 mm 2 m/S 464 mmHg 74%
    17:00 -16°C° 0 mm 2 m/S 463 mmHg 78%
    18:00 -17°C° 0 mm 2 m/S 463 mmHg 79%
    19:00 -19°C° 0 mm 2 m/S 463 mmHg 80%
    20:00 -22°C° 0 mm 3 m/S 462 mmHg 81%
    21:00 -22°C° 0 mm 3 m/S 462 mmHg 82%
    22:00 -23°C° 0 mm 3 m/S 462 mmHg 82%
    23:00 -23°C° 0 mm 3 m/S 462 mmHg 83%

    23 Januar, Mittwoch

    Zeit Temperatur Niederschläge Wind Luftdruck Luftfeuchtigkeit
    00:00 -23°C° 0 mm 3 m/S 462 mmHg 83%
    01:00 -23°C° 0 mm 3 m/S 462 mmHg 83%
    02:00 -23°C° 0 mm 3 m/S 462 mmHg 84%
    03:00 -23°C° 0 mm 3 m/S 462 mmHg 84%
    04:00 -23°C° 0 mm 3 m/S 462 mmHg 84%
    05:00 -23°C° 0 mm 3 m/S 462 mmHg 84%
    06:00 -22°C° 0 mm 3 m/S 463 mmHg 83%
    07:00 -22°C° 0 mm 3 m/S 464 mmHg 83%
    08:00 -21°C° 0 mm 3 m/S 465 mmHg 83%
    09:00 -19°C° 0 mm 3 m/S 466 mmHg 80%
    10:00 -17°C° 0 mm 3 m/S 467 mmHg 77%
    11:00 -16°C° 0 mm 4 m/S 469 mmHg 75%
    12:00 -16°C° 0.1 mm 4 m/S 469 mmHg 75%
    13:00 -15°C° 0.1 mm 4 m/S 469 mmHg 75%
    14:00 -15°C° 0.1 mm 4 m/S 469 mmHg 76%
    15:00 -15°C° 0.1 mm 3 m/S 468 mmHg 78%
    16:00 -16°C° 0.1 mm 3 m/S 468 mmHg 81%
    17:00 -15°C° 0.1 mm 2 m/S 467 mmHg 84%
    18:00 -16°C° 0.1 mm 2 m/S 467 mmHg 84%
    19:00 -18°C° 0.1 mm 3 m/S 467 mmHg 85%
    20:00 -19°C° 0.1 mm 3 m/S 466 mmHg 85%
    21:00 -21°C° 0.1 mm 3 m/S 466 mmHg 85%
    22:00 -22°C° 0.1 mm 3 m/S 466 mmHg 85%
    23:00 -22°C° 0.1 mm 3 m/S 465 mmHg 85%
    Mehr zeigen